This is the latest recevied weather packets stored in our database for station/object G6UYG-13. If no packets are shown the sender has not sent any weather packets the latest 1 day(s).
| Time | Temp. | Humidity | Pressure | Rain* | Wind** | Luminosity | Snow |
|---|---|---|---|---|---|---|---|
| 1778074232 | 13.89° C | 48% | 1012.5 hPa | 0 mm | - | 851 W/m² | - |
| 1778072789 | 13.89° C | 53% | 1012.7 hPa | 0 mm | - | 944 W/m² | - |
| 1778072250 | 13.89° C | 53% | 1012.7 hPa | 0 mm | - | 287 W/m² | - |
| 1778071410 | 13.89° C | 51% | 1012.7 hPa | 0 mm | - | 285 W/m² | - |
| 1778071091 | 13.33° C | 53% | 1012.7 hPa | 0 mm | - | 294 W/m² | - |
| 1778070990 | 13.33° C | 53% | 1012.7 hPa | 0 mm | - | 294 W/m² | - |
| 1778070570 | 13.33° C | 52% | 1012.7 hPa | 0 mm | - | 206 W/m² | - |
| 1778070150 | 13.89° C | 52% | 1012.7 hPa | 0 mm | - | 199 W/m² | - |
| 1778069730 | 13.33° C | 53% | 1012.7 hPa | 0 mm | - | 997 W/m² | - |
| 1778069310 | 13.89° C | 52% | 1012.8 hPa | 0 mm | - | 250 W/m² | - |
| 1778069077 | 13.89° C | 51% | 1013 hPa | 0 mm | - | 185 W/m² | - |
| 1778068890 | 13.89° C | 51% | 1013 hPa | 0 mm | - | 185 W/m² | - |
| 1778068470 | 13.89° C | 52% | 1013 hPa | 0 mm | - | 450 W/m² | - |
| 1778068090 | 13.89° C | 53% | 1013.1 hPa | 0 mm | - | 870 W/m² | - |
| 1778068050 | 13.89° C | 52% | 1013 hPa | 0 mm | - | 893 W/m² | - |
| 1778067630 | 13.89° C | 53% | 1013.1 hPa | 0 mm | - | 833 W/m² | - |
| 1778067210 | 13.89° C | 53% | 1013.1 hPa | 0 mm | - | 870 W/m² | - |
| 1778066790 | 13.33° C | 53% | 1013.1 hPa | 0 mm | - | 944 W/m² | - |
| 1778066370 | 13.33° C | 54% | 1013.2 hPa | 0 mm | - | 548 W/m² | - |
| 1778066242 | 13.33° C | 53% | 1013.2 hPa | 0 mm | - | 824 W/m² | - |
| 1778065950 | 13.33° C | 53% | 1013.2 hPa | 0 mm | - | 824 W/m² | - |
| 1778065659 | 13.33° C | 52% | 1013.2 hPa | 0 mm | - | 383 W/m² | - |
| 1778065530 | 13.33° C | 52% | 1013.2 hPa | 0 mm | - | 383 W/m² | - |
| 1778064933 | 13.33° C | 53% | 1013.3 hPa | 0 mm | - | 791 W/m² | - |
| 1778064270 | 12.78° C | 55% | 1013.4 hPa | 0 mm | - | 780 W/m² | - |
* Rain latest hour (hover to see other rain measurements)
** Current wind speed in m/s (hover to see current wind gust speed)